Location: Atlantic Beach
(40.5890°N, 73.7290°W)
Time: 01:35:10
(UTC+00:00)

Okean-O - Visible Passes

Search period start: 27 February 2021 00:00
Search period end: 09 March 2021 00:00
Orbit: 638 x 641 km, 98.2° (Epoch: 26 February)

Date Brightness Start Highest point End Pass type
(mag) Time Alt. Az. Time Alt. Az. Time Alt. Az.
27 Feb 4.8 00:32:15 10° SSW 00:35:58 26° W 00:39:42 10° NW visible
27 Feb 2.8 23:18:29 10° SE 23:22:45 48° ENE 23:27:01 10° N visible
28 Feb 5.7 00:56:55 10° SW 00:59:28 15° W 01:02:02 10° WNW visible
28 Feb 2.6 23:41:35 10° SSE 23:46:01 87° ENE 23:50:27 10° NNW visible
02 Mar 3.5 00:05:03 10° S 00:09:21 51° W 00:13:41 10° NNW visible
03 Mar 4.7 00:28:56 10° SSW 00:32:45 29° W 00:36:37 10° NW visible
03 Mar 3.0 23:15:23 10° SE 23:19:35 44° ENE 23:23:48 10° N visible
04 Mar 5.6 00:53:27 10° SW 00:56:15 16° W 00:59:04 10° NW visible
04 Mar 2.6 23:38:25 10° SSE 23:42:50 80° ENE 23:47:16 10° N visible
06 Mar 3.3 00:01:49 10° S 00:06:09 57° W 00:10:31 10° NNW visible
07 Mar 4.5 00:25:37 10° SSW 00:29:33 31° W 00:33:31 10° NW visible
08 Mar 5.4 00:50:01 10° SW 00:53:02 18° W 00:56:05 10° NW visible
08 Mar 2.6 23:35:15 10° SSE 23:39:39 73° ENE 23:44:05 10° N visible
